Find Kosmos-1320

NORAD ID: 12975 Int'l Des: 1981-116 Owner: GUKOS Country: SU operational
LEOCIRCULAR

リアルタイム位置

3D地球を読み込み中...

Kosmos-1320について

説明を読み込み中...

次回通過

Passes for default location (London). Set your location on the main map for personalized predictions.

高度履歴

Loading altitude history...

軌道要素

1 12975U 81116A 26105.03412904 .00000019 00000-0 28988-3 0 9996
2 12975 73.9798 140.9154 0096580 6.7043 5.8304 12.28044913989416
Epoch: Apr 15, 2026 • Age: 10 hours

現在のステータス

高度 1511.5 km
速度 7.14 km/s
衛星直下点 49.50°N, 154.24°E
打ち上げ日 Nov 28, 1981
運用期間 44.3 years
タイプ other

技術仕様

分類 Payload
質量 60.00 kg
乾燥質量 60.00 kg
総質量 60.00 kg
長さ 0.80 m
直径 0.80 m
スパン 0.80 m
形状 Poly
製造者 NPOPM
バスタイプ Strela-1 11F625
フェーズステータス In Orbit
所有者/国 GUKOS/SU

Most Searched